Flag for Brazil Weather past 2 weeks in Rio Branco, Acre, Brazil

Now
86 °F

Partly sunny.


Feels Like: 92 °F
Forecast: 72 / 88 °F
Wind: 15 mph from Northwest

Location: Rio Branco Airport

Current Time: Dec 18, 2014 at 10:30:48 AM

Latest Report: Dec 18, 2014 at 10:00 AM


Visibility: N/A

Pressure: 29.89 "Hg

Humidity: 62%

Dew point: 72 °F

Location of Rio BrancoLocation

Historic Weather in Rio Branco — Graph

°F

Rio Branco temperature yesterday

Maximum temperature yesterday: 86 °F (at 12:00 PM)
Minimum temperature yesterday: 73 °F (at 3:00 AM)
Average temperature yesterday: 79 °F

Past Weeks' High & Low Weather Summary

 TemperatureHumidityPressure
High91 °F (Dec 4, 1:00 PM)100% (Dec 5, 6:00 AM)29.95 "Hg (Dec 5, 6:00 AM)
Low70 °F (Dec 3, 6:00 PM)21% (Dec 13, 3:00 PM)29.65 "Hg (Dec 6, 5:00 PM)
Average77 °F83%29.83 "Hg
* Reported Dec 3 9:00 AM — Dec 18 9:00 AM, Rio Branco, Weather by CustomWeather, © 2014

Note: Actual official high and low records may vary slightly from our data, if they occured in-between our weather recording intervals... More about our weather records

Advertising

Rio Branco weather history for previous 24 hours

 ConditionsComfort  
Time TempWeatherWind HumidityBarometerVisibility
9:00 AM
Dec 18
82 °FScattered clouds.9 mph66%29.89 "HgN/A
8:00 AM79 °FSunny.6 mph79%29.89 "Hg10 mi
7:00 AM75 °FSunny.5 mph89%29.86 "Hg10 mi
6:00 AM73 °FClear.2 mph94%29.83 "Hg10 mi
5:00 AM72 °FPassing clouds.5 mph94%29.80 "HgN/A
4:00 AM73 °FClear.2 mph89%29.80 "Hg10 mi
3:00 AM73 °FClear.1 mph89%29.80 "Hg10 mi
2:00 AM73 °FClear.1 mph89%29.80 "Hg10 mi
1:00 AM73 °FClear.3 mph89%29.80 "Hg10 mi
12:00 AM73 °FClear.2 mph89%29.83 "Hg10 mi
11:00 PM
Dec 17
73 °FClear.No wind89%29.86 "Hg10 mi
10:00 PM73 °FClear.2 mph89%29.86 "Hg10 mi
9:00 PM73 °FClear.2 mph89%29.83 "Hg10 mi
8:00 PM75 °FPassing clouds.2 mph83%29.83 "HgN/A
7:00 PM77 °FPassing clouds.1 mph79%29.77 "HgN/A
6:00 PM82 °FScattered clouds.3 mph62%29.77 "HgN/A
5:00 PM84 °FScattered clouds.7 mph58%29.74 "HgN/A
4:00 PM84 °FScattered clouds.12 mph66%29.74 "HgN/A
3:00 PM86 °FScattered clouds.9 mph55%29.77 "HgN/A
2:00 PM86 °FScattered showers. Partly sunny.7 mph59%29.80 "HgN/A
1:00 PM86 °FBroken clouds.7 mph59%29.83 "HgN/A
12:00 PM86 °FScattered clouds.8 mph59%29.89 "HgN/A
11:00 AM84 °FScattered clouds.3 mph66%29.92 "HgN/A
10:00 AM82 °FPartly sunny.8 mph70%29.95 "HgN/A
Weather by CustomWeather, © 2014

See weather overviewHow to use our weather pages